Printer-friendly version

IAU Minor Planet Center

Minor Planet Center

MPEC 2007-V08 : 2007 VG

The following Minor Planet Electronic Circular may be linked-to from your own Web pages, but must not otherwise be redistributed electronically.


Read MPEC 2007-V07 Read MPEC 2007-V09


M.P.E.C. 2007-V08                                Issued 2007 Nov. 2, 17:53 UT

     The Minor Planet Electronic Circulars contain information on unusual
         minor planets and routine data on comets.  They are published
   on behalf of Commission 20 of the International Astronomical Union by the
          Minor Planet Center, Smithsonian Astrophysical Observatory,
                          Cambridge, MA 02138, U.S.A.

             Prepared using the Tamkin Foundation Computer Network

                              MPC@CFA.HARVARD.EDU
          URL http://www.cfa.harvard.edu/iau/mpc.html  ISSN 1523-6714

                                    2007 VG

Observations:
     K07V00G* C2007 11 01.20193 00 50 33.28 +06 24 56.5          19.0 V EV008G96
     K07V00G  C2007 11 01.20637 00 50 31.30 +06 25 31.6          19.1 V EV008G96
     K07V00G  C2007 11 01.21082 00 50 29.29 +06 26 07.1          18.4 V EV008G96
     K07V00G  C2007 11 01.21524 00 50 27.38 +06 26 41.6          18.7 V EV008G96
     K07V00G  C2007 11 01.25943 00 50 07.53 +06 32 32.7          18.8 R EV008651
     K07V00G  C2007 11 01.26289 00 50 06.01 +06 32 58.7          18.9 R EV008651
     K07V00G  C2007 11 01.26461 00 50 05.20 +06 33 12.4          19.0 R EV008651
     K07V00G  C2007 11 01.30189 00 49 48.72 +06 38 06.0          19.1 V EV008G96
     K07V00G  C2007 11 01.30219 00 49 48.57 +06 38 08.2          19.1 V EV008G96
     K07V00G  C2007 11 01.30249 00 49 48.43 +06 38 10.7          19.0 V EV008G96
     K07V00G  C2007 11 01.30280 00 49 48.28 +06 38 12.9          18.9 V EV008G96
     K07V00G  C2007 11 01.83236 00 46 08.81 +07 45 10.8                 EV008246
     K07V00G  C2007 11 01.83366 00 46 08.28 +07 45 18.7                 EV008246
     K07V00G  C2007 11 01.83443 00 46 07.94 +07 45 24.0                 EV008246
     K07V00G  C2007 11 01.83497 00 46 07.74 +07 45 28.4                 EV008246
     K07V00G  C2007 11 01.83538 00 46 07.54 +07 45 31.1                 EV008246
     K07V00G  C2007 11 01.83572 00 46 07.38 +07 45 33.5                 EV008246
     K07V00G  C2007 11 01.83630 00 46 07.16 +07 45 38.0                 EV008246
     K07V00G  C2007 11 01.83734 00 46 06.73 +07 45 45.5                 EV008246
     K07V00G  C2007 11 01.83806 00 46 06.42 +07 45 51.1                 EV008246
     K07V00G  C2007 11 01.85917 00 45 58.12 +07 48 24.2                 EV008J95
     K07V00G  C2007 11 01.86324 00 45 56.39 +07 48 54.5                 EV008J95
     K07V00G  C2007 11 01.86727 00 45 54.76 +07 49 24.5          19.2 R EV008J95
     K07V00G  C2007 11 01.93135 00 45 27.95 +07 57 14.1                 EV008595
     K07V00G  C2007 11 01.94877 00 45 20.77 +07 59 21.0          18.6 V EV008595
     K07V00G  C2007 11 02.01795 00 44 52.97 +08 07 42.0          18.7 R EV008213
     K07V00G 5C2007 11 02.18333 00 43 50.15 +08 27 23.1          19.2 R EV008673
     K07V00G 5C2007 11 02.18975 00 43 47.59 +08 28 08.1                 EV008673
     K07V00G 5C2007 11 02.19333 00 43 46.19 +08 28 33.0                 EV008673
     K07V00G 5C2007 11 02.19757 00 43 44.50 +08 29 02.9                 EV008673

Observer details:
213 Observatorio Montcabre.  Observer R. Naves.  Measurer M. Campas.  0.30-m
    f/6 Schmidt-Cassegrain + CCD.
246 Klet Observatory-KLENOT.  Observer M. Tichy.  1.06-m KLENOT Telescope
    + CCD.
595 Farra d'Isonzo.  Observers L. Bittesini, G. Lombardi, E. Pettarin,
    F. Piani.  Measurers G. Lombardi, E. Pettarin.  0.40-m f/4.5 reflector
    + CCD.
651 Grasslands Observatory, Tucson.  Observer J. E. McGaha.  0.62-m f/5.1
    Newtonian reflector + CCD.
673 Table Mountain Observatory, Wrightwood.  Observer J. Young.  0.61-m f/16
    Cassegrain + CCD.
G96 Mt. Lemmon Survey.  Observer R. A. Kowalski.  Measurers E. C. Beshore,
    A. Boattini, G. J. Garradd, A. R. Gibbs, A. D. Grauer, R. E. Hill,
    R. A. Kowalski, S. M. Larson, R. H. McNaught.  1.5-m reflector + CCD.
J95 Great Shefford.  Observer P. Birtwhistle.  0.40-m f/6.0 Schmidt-Cassegrain
    + CCD.

Orbital elements:
2007 VG                                                  Earth MOID = 0.0577 AU
Epoch 2007 Oct. 27.0 TT = JDT 2454400.5                 MPC
M  26.58872              (2000.0)            P               Q
n   0.42414592     Peri.  258.54670     +0.18952972     +0.88745910
a   1.7543888      Node    33.67953     -0.29411932     +0.45953485
e   0.6337176      Incl.   49.25116     -0.93678829     +0.03527136
P   2.32           H   20.8           G   0.15           U   9
Residuals in seconds of arc
071101 G96  0.7-  0.2+    071101 G96  0.2+  0.0     071101 J95  0.5+  0.4-
071101 G96  0.5-  0.0     071101 246  0.5+  1.7+    071101 J95  0.3-  0.0
071101 G96  0.7-  0.2+    071101 246  0.6+  0.0     071101 J95  0.1+  0.5+
071101 G96  0.4+  0.4-    071101 246  0.3+  0.3-    071101 595  0.7-  0.1-
071101 651  0.3-  0.4+    071101 246  0.6+  0.1+    071101 595  1.5-  0.5+
071101 651  0.1+  0.8-    071101 246  0.2+  0.2-    071102 213  0.3-  0.3+
071101 651  0.5-  0.7-    071101 246  0.1-  0.3-    071102 673  0.4-  0.0
071101 G96  0.7+  0.2+    071101 246  0.2+  0.1-    071102 673  0.3-  0.3-
071101 G96  0.5+  0.1+    071101 246  0.2+  0.2-    071102 673  0.1+  0.6-
071101 G96  0.4+  0.2+    071101 246  0.0   0.1+    071102 673  0.1+  0.6-

Ephemeris:
2007 VG                  a,e,i = 1.75, 0.63, 49                  q = 0.6426
Date    TT    R. A. (2000) Decl.     Delta      r     Elong.  Phase     V
2007 10 27    01 43.85   -09 34.0    0.167    1.150   157.4    19.4    18.2
2007 10 28    01 30.68   -05 43.0    0.176    1.160   159.3    17.6    18.3
2007 10 29    01 19.11   -02 15.3    0.187    1.171   159.9    17.0    18.4
2007 10 30    01 08.93   +00 49.6    0.199    1.181   159.3    17.3    18.6
2007 10 31    00 59.96   +03 33.4    0.212    1.192   158.0    18.2    18.8
2007 11 01    00 52.04   +05 58.0    0.225    1.202   156.2    19.5    18.9
2007 11 02    00 45.03   +08 05.8    0.240    1.213   154.3    20.8    19.1
2007 11 03    00 38.80   +09 58.8    0.254    1.223   152.3    22.2    19.3
2007 11 04    00 33.27   +11 39.0    0.270    1.233   150.3    23.5    19.5
2007 11 05    00 28.34   +13 08.2    0.285    1.244   148.4    24.7    19.7
2007 11 06    00 23.93   +14 27.7    0.301    1.254   146.6    25.8    19.9
2007 11 07    00 20.00   +15 39.0    0.318    1.264   144.8    26.9    20.0
2007 11 08    00 16.48   +16 43.0    0.335    1.275   143.1    27.8    20.2
2007 11 09    00 13.33   +17 40.9    0.352    1.285   141.6    28.6    20.3
2007 11 10    00 10.51   +18 33.3    0.369    1.295   140.1    29.4    20.5
2007 11 11    00 07.98   +19 20.9    0.386    1.305   138.6    30.1    20.6
2007 11 12    00 05.72   +20 04.4    0.404    1.315   137.2    30.7    20.7
2007 11 13    00 03.70   +20 44.2    0.421    1.325   135.9    31.3    20.9
2007 11 14    00 01.89   +21 20.8    0.439    1.335   134.7    31.8    21.0
2007 11 15    00 00.29   +21 54.6    0.457    1.345   133.4    32.3    21.1
2007 11 16    23 58.86   +22 25.8    0.475    1.355   132.3    32.7    21.2
2007 11 17    23 57.60   +22 54.8    0.494    1.365   131.1    33.1    21.3
2007 11 18    23 56.49   +23 21.8    0.512    1.375   130.0    33.4    21.4
2007 11 19    23 55.52   +23 47.0    0.530    1.385   129.0    33.7    21.5
2007 11 20    23 54.67   +24 10.5    0.549    1.395   128.0    34.0    21.6
2007 11 21    23 53.95   +24 32.6    0.568    1.404   127.0    34.2    21.7
2007 11 22    23 53.33   +24 53.4    0.586    1.414   126.0    34.4    21.8
2007 11 23    23 52.82   +25 13.1    0.605    1.424   125.0    34.6    21.9
2007 11 24    23 52.40   +25 31.6    0.624    1.434   124.1    34.8    22.0
2007 11 25    23 52.07   +25 49.2    0.643    1.443   123.2    34.9    22.1
2007 11 26    23 51.83   +26 06.0    0.662    1.453   122.3    35.0    22.2

Timothy B. Spahr             (C) Copyright 2007 MPC           M.P.E.C. 2007-V08

Read MPEC 2007-V07 Read MPEC 2007-V09


Our Web policy. Index to the CBAT/MPC/ICQ pages.


Valid HTML 4.01!